Tracking 29799 objects as of 11-Oct-2024
HD Live streaming from Space Station
objects crossing your sky now

ONEWEB-0169

Track ONEWEB-0169 now!
10-day predictions
ONEWEB-0169 is classified as:


NORAD ID: 48077
Int'l Code: 2021-025AM
Perigee: 1,215.8 km
Apogee: 1,218.0 km
Inclination: 87.9 °
Period: 109.6 minutes
Semi major axis: 7587 km
RCS: Unknown
Launch date: March 25, 2021
Source: United States (US)
Launch site: VOSTOCHNY COSMODROME (VOSTO)
Your satellite tracking list
Your tracking list is empty




NASA's NSSDC Master Catalog

Two Line Element Set (TLE):
1 48077U 21025AM  24284.88721582  .00000400  00000-0  10608-2 0  9998
2 48077  87.8863  82.4407 0001465  97.9696 262.1600 13.13473750171667
Source of the keplerian elements: AFSPC